Location: Ariel
(45.9570°N, 122.5700°W)
Time: 08:39:47
(UTC-07:00)

Tiros 1 - Pass Details

Date: 23 July 2019
Orbit: 631 x 664 km, 48.4° (Epoch: 23 August)

Event Time Altitude Azimuth Distance (km) Brightness Sun altitude
Rises 19:42:13 0° 279° (W) 2,992 12.6 10.0°
Reaches altitude 10° 19:46:31 10° 242° (WSW) 2,067 10.5 9.3°
Maximum altitude 19:47:38 11° 229° (SW) 2,013 10.2 9.1°
Drops below altitude 10° 19:48:45 10° 215° (SW) 2,060 10.0 8.9°
Sets 19:53:01 0° 178° (S) 2,956 10.3 8.2°
